Location: Nuoro
(40.3170°N, 9.3500°E)
Time: 09:15:40
(UTC+02:00)

ISS - Visible Passes

Search period start: 08 May 2021 00:00
Search period end: 18 May 2021 00:00
Orbit: 418 x 421 km, 51.6° (Epoch: 08 May)

Date Brightness Start Highest point End Pass type
(mag) Time Alt. Az. Time Alt. Az. Time Alt. Az.
08 May -0.8 02:49:25 17° N 02:49:25 17° N 02:50:52 10° NNE visible
08 May -0.7 04:24:44 10° NNW 04:26:10 12° N 04:27:36 10° NNE visible
09 May -0.3 02:03:26 11° NNE 02:03:26 11° NNE 02:03:36 10° NE visible
09 May -0.7 03:36:57 10° NNW 03:38:27 12° N 03:39:58 10° NNE visible
09 May -0.8 05:14:04 10° NNW 05:16:20 17° NNE 05:18:37 10° ENE visible
10 May -0.7 02:50:23 13° NNW 02:50:45 13° N 02:52:32 10° NNE visible
10 May -0.7 04:26:46 10° NNW 04:28:40 14° NNE 04:30:35 10° NE visible
11 May -0.4 02:04:21 13° NNE 02:04:21 13° NNE 02:05:12 10° NNE visible
11 May -0.6 03:39:23 10° NNW 03:40:58 13° N 03:42:34 10° NE visible
11 May -1.5 05:15:40 10° NW 05:18:39 28° NNE 05:21:37 10° E visible
12 May -0.5 02:51:49 10° NNW 02:53:15 12° N 02:54:41 10° NNE visible
12 May -1.0 04:28:24 10° NNW 04:31:04 21° NNE 04:33:43 10° ENE visible
13 May -0.4 02:05:02 12° NNW 02:05:32 12° N 02:07:02 10° NNE visible
13 May -0.7 03:41:08 10° NNW 03:43:25 17° NNE 03:45:42 10° ENE visible
13 May -3.3 05:17:22 10° NW 05:20:44 67° NE 05:24:05 10° ESE visible
14 May -0.4 01:18:38 13° N 01:18:38 13° N 01:19:35 10° NNE visible
14 May -0.5 02:53:50 10° NNW 02:55:45 14° NNE 02:57:40 10° NE visible
14 May -2.4 04:30:01 10° NW 04:33:15 41° NNE 04:36:28 10° ESE visible
14 May -2.2 21:14:02 10° S 21:16:14 17° SE 21:18:27 10° E visible
14 May -3.1 22:49:27 10° WSW 22:52:45 54° NNW 22:55:40 13° NE visible
15 May -0.6 00:28:01 10° NW 00:30:08 15° NNW 00:32:16 10° NNE visible
15 May -0.3 02:06:28 10° NNW 02:08:02 13° N 02:09:38 10° NE visible
15 May -1.6 03:42:44 10° NW 03:45:43 28° NNE 03:48:41 10° E visible
15 May -3.3 05:19:25 10° WNW 05:22:35 39° SW 05:25:46 10° SSE visible
15 May -3.9 22:01:56 10° SW 22:05:18 89° SE 22:08:39 10° NE visible
15 May -0.9 23:40:00 10° WNW 23:42:28 19° NNW 23:44:59 10° NNE visible
16 May -0.3 01:18:54 10° NNW 01:20:19 12° N 01:21:44 10° NNE visible
16 May -1.1 02:55:27 10° NNW 02:58:07 21° NNE 03:00:46 10° ENE visible
16 May -3.9 04:31:51 10° WNW 04:35:13 71° SW 04:38:34 10° SE visible
16 May -3.6 21:14:38 10° SW 21:17:53 50° SE 21:21:10 10° ENE visible
16 May -1.3 22:52:02 10° W 22:54:52 25° NNW 22:57:43 10° NNE visible
17 May -0.3 00:31:06 10° NNW 00:32:36 12° N 00:34:05 10° NNE visible
17 May -0.8 02:08:11 10° NNW 02:10:29 17° NNE 02:12:46 10° ENE visible
17 May -3.5 03:45:05 15° NW 03:47:47 67° NE 03:51:08 10° ESE visible
17 May -1.9 05:22:30 10° W 05:24:12 13° SW 05:25:54 10° SSW visible
17 May -2.0 22:04:11 10° W 22:07:18 34° NNW 22:10:26 10° NE visible
17 May -0.4 23:43:08 10° NW 23:44:53 13° N 23:46:38 10° NNE visible
